Hourly Weather Chakan

Today, 12 June, Saturday

Time Temperature Precipitation Wind Pressure Humidity
00:00 +26°C° 0 mm 3 mps 701 mmHg 81%
01:00 +26°C° 0 mm 3 mps 700 mmHg 82%
02:00 +26°C° 0 mm 3 mps 700 mmHg 83%
03:00 +25°C° 0 mm 3 mps 700 mmHg 84%
04:00 +25°C° 0 mm 3 mps 700 mmHg 85%
05:00 +25°C° 0 mm 2 mps 700 mmHg 86%
06:00 +26°C° 0 mm 3 mps 700 mmHg 82%
07:00 +27°C° 0 mm 3 mps 701 mmHg 79%
08:00 +27°C° 0 mm 3 mps 701 mmHg 75%
09:00 +29°C° 0 mm 4 mps 702 mmHg 70%
10:00 +30°C° 0 mm 5 mps 702 mmHg 65%
11:00 +32°C° 0 mm 5 mps 702 mmHg 60%
12:00 +32°C° 0.3 mm 6 mps 701 mmHg 60%
13:00 +32°C° 0.3 mm 6 mps 701 mmHg 60%
14:00 +32°C° 0.3 mm 6 mps 701 mmHg 60%
15:00 +30°C° 0.4 mm 6 mps 701 mmHg 63%
16:00 +30°C° 0.4 mm 6 mps 701 mmHg 65%
17:00 +29°C° 0.4 mm 6 mps 701 mmHg 68%
18:00 +28°C° 0 mm 6 mps 701 mmHg 72%
19:00 +27°C° 0 mm 6 mps 701 mmHg 75%
20:00 +26°C° 0 mm 5 mps 701 mmHg 79%
21:00 +26°C° 0 mm 5 mps 702 mmHg 81%
22:00 +26°C° 0 mm 5 mps 702 mmHg 82%
23:00 +25°C° 0 mm 4 mps 702 mmHg 84%

Tomorrow, 13 June, Sunday

Time Temperature Precipitation Wind Pressure Humidity
00:00 +25°C° 0 mm 4 mps 701 mmHg 85%
01:00 +25°C° 0 mm 5 mps 701 mmHg 86%
02:00 +25°C° 0 mm 5 mps 700 mmHg 86%
03:00 +25°C° 0 mm 4 mps 701 mmHg 87%
04:00 +25°C° 0 mm 4 mps 701 mmHg 87%
05:00 +25°C° 0 mm 4 mps 701 mmHg 87%
06:00 +25°C° 0 mm 4 mps 701 mmHg 84%
07:00 +26°C° 0 mm 4 mps 701 mmHg 80%
08:00 +26°C° 0 mm 4 mps 702 mmHg 77%
09:00 +28°C° 0 mm 5 mps 702 mmHg 71%
10:00 +29°C° 0 mm 5 mps 702 mmHg 66%
11:00 +30°C° 0 mm 5 mps 702 mmHg 61%
12:00 +32°C° 0.3 mm 5 mps 701 mmHg 60%
13:00 +32°C° 0.3 mm 6 mps 701 mmHg 59%
14:00 +32°C° 0.3 mm 6 mps 701 mmHg 58%
15:00 +30°C° 0.1 mm 6 mps 700 mmHg 61%
16:00 +30°C° 0.1 mm 6 mps 700 mmHg 64%
17:00 +29°C° 0.1 mm 6 mps 700 mmHg 66%
18:00 +28°C° 0 mm 6 mps 701 mmHg 70%
19:00 +27°C° 0 mm 5 mps 701 mmHg 74%
20:00 +26°C° 0 mm 5 mps 702 mmHg 78%
21:00 +26°C° 0 mm 5 mps 701 mmHg 80%
22:00 +26°C° 0 mm 5 mps 701 mmHg 81%
23:00 +25°C° 0 mm 5 mps 701 mmHg 83%

Day after tomorrow, 14 June, Monday

Time Temperature Precipitation Wind Pressure Humidity
00:00 +25°C° 0 mm 4 mps 701 mmHg 83%
01:00 +25°C° 0 mm 4 mps 700 mmHg 84%
02:00 +25°C° 0 mm 4 mps 700 mmHg 84%
03:00 +25°C° 0 mm 3 mps 700 mmHg 84%
04:00 +25°C° 0 mm 3 mps 700 mmHg 85%
05:00 +25°C° 0 mm 3 mps 700 mmHg 85%
06:00 +25°C° 0 mm 3 mps 700 mmHg 82%
07:00 +26°C° 0 mm 4 mps 701 mmHg 79%
08:00 +27°C° 0 mm 4 mps 701 mmHg 75%
09:00 +28°C° 0 mm 5 mps 701 mmHg 71%
10:00 +29°C° 0 mm 5 mps 701 mmHg 67%
11:00 +30°C° 0 mm 5 mps 701 mmHg 63%
12:00 +30°C° 0.1 mm 5 mps 700 mmHg 63%
13:00 +30°C° 0.1 mm 5 mps 700 mmHg 63%
14:00 +32°C° 0.1 mm 6 mps 699 mmHg 63%
15:00 +30°C° 0.3 mm 6 mps 699 mmHg 65%
16:00 +29°C° 0.3 mm 6 mps 699 mmHg 68%
17:00 +29°C° 0.3 mm 6 mps 699 mmHg 70%
18:00 +28°C° 0 mm 5 mps 699 mmHg 73%
19:00 +27°C° 0 mm 4 mps 700 mmHg 76%
20:00 +26°C° 0 mm 4 mps 700 mmHg 79%
21:00 +26°C° 0 mm 4 mps 700 mmHg 80%
22:00 +26°C° 0 mm 4 mps 700 mmHg 82%
23:00 +26°C° 0 mm 4 mps 700 mmHg 83%

15 June, Tuesday

Time Temperature Precipitation Wind Pressure Humidity
00:00 +25°C° 0 mm 4 mps 699 mmHg 84%
01:00 +25°C° 0 mm 4 mps 699 mmHg 85%
02:00 +25°C° 0 mm 4 mps 698 mmHg 86%
03:00 +25°C° 0 mm 3 mps 698 mmHg 86%
04:00 +25°C° 0 mm 3 mps 698 mmHg 87%
05:00 +25°C° 0 mm 3 mps 698 mmHg 87%
06:00 +25°C° 0 mm 3 mps 699 mmHg 85%
07:00 +26°C° 0 mm 3 mps 699 mmHg 84%
08:00 +26°C° 0 mm 3 mps 699 mmHg 83%
09:00 +27°C° 0 mm 3 mps 699 mmHg 78%
10:00 +28°C° 0 mm 3 mps 699 mmHg 73%
11:00 +29°C° 0 mm 4 mps 699 mmHg 68%
12:00 +30°C° 0.2 mm 4 mps 699 mmHg 65%
13:00 +30°C° 0.2 mm 4 mps 698 mmHg 62%
14:00 +32°C° 0.2 mm 4 mps 698 mmHg 59%
15:00 +30°C° 0.6 mm 4 mps 698 mmHg 63%
16:00 +29°C° 0.6 mm 4 mps 697 mmHg 66%
17:00 +29°C° 0.6 mm 4 mps 697 mmHg 69%
18:00 +28°C° 0.8 mm 4 mps 697 mmHg 73%
19:00 +27°C° 0.8 mm 4 mps 698 mmHg 77%
20:00 +27°C° 0.8 mm 4 mps 698 mmHg 80%
21:00 +26°C° 0.8 mm 4 mps 698 mmHg 83%
22:00 +26°C° 0.8 mm 5 mps 698 mmHg 85%
23:00 +25°C° 0.8 mm 5 mps 699 mmHg 87%

16 June, Wednesday

Time Temperature Precipitation Wind Pressure Humidity
00:00 +25°C° 0.1 mm 5 mps 698 mmHg 87%
01:00 +25°C° 0.1 mm 5 mps 698 mmHg 87%
02:00 +25°C° 0.1 mm 5 mps 697 mmHg 87%
03:00 +25°C° 0.2 mm 5 mps 698 mmHg 87%
04:00 +25°C° 0.2 mm 5 mps 698 mmHg 87%
05:00 +25°C° 0.2 mm 5 mps 698 mmHg 87%
06:00 +25°C° 0.7 mm 5 mps 698 mmHg 86%
07:00 +25°C° 0.7 mm 5 mps 699 mmHg 86%
08:00 +25°C° 0.7 mm 5 mps 699 mmHg 85%
09:00 +25°C° 0.8 mm 5 mps 699 mmHg 85%
10:00 +25°C° 0.8 mm 5 mps 699 mmHg 85%
11:00 +25°C° 0.8 mm 5 mps 700 mmHg 85%
12:00 +25°C° 1.2 mm 5 mps 699 mmHg 85%
13:00 +25°C° 1.2 mm 5 mps 699 mmHg 85%
14:00 +25°C° 1.2 mm 5 mps 699 mmHg 85%
15:00 +25°C° 0.6 mm 4 mps 699 mmHg 85%
16:00 +25°C° 0.6 mm 4 mps 699 mmHg 85%
17:00 +25°C° 0.6 mm 3 mps 699 mmHg 85%
18:00 +25°C° 0.2 mm 4 mps 699 mmHg 85%
19:00 +25°C° 0.2 mm 4 mps 700 mmHg 84%
20:00 +25°C° 0.2 mm 4 mps 700 mmHg 84%
21:00 +25°C° 0 mm 4 mps 700 mmHg 85%
22:00 +25°C° 0 mm 4 mps 700 mmHg 85%
23:00 +25°C° 0 mm 4 mps 701 mmHg 85%

17 June, Thursday

Time Temperature Precipitation Wind Pressure Humidity
00:00 +25°C° 0 mm 4 mps 700 mmHg 87%
01:00 +25°C° 0 mm 4 mps 700 mmHg 88%
02:00 +25°C° 0 mm 4 mps 699 mmHg 89%
03:00 +25°C° 0 mm 4 mps 699 mmHg 90%
04:00 +25°C° 0 mm 4 mps 699 mmHg 91%
05:00 +25°C° 0 mm 4 mps 699 mmHg 91%
06:00 +25°C° 0.1 mm 4 mps 700 mmHg 88%
07:00 +26°C° 0.1 mm 5 mps 700 mmHg 85%
08:00 +26°C° 0.1 mm 6 mps 701 mmHg 82%
09:00 +27°C° 0.1 mm 6 mps 701 mmHg 79%
10:00 +28°C° 0.1 mm 7 mps 701 mmHg 75%
11:00 +29°C° 0.1 mm 7 mps 701 mmHg 72%
12:00 +29°C° 0.1 mm 7 mps 701 mmHg 70%
13:00 +29°C° 0.1 mm 7 mps 701 mmHg 69%
14:00 +29°C° 0.1 mm 7 mps 700 mmHg 68%
15:00 +29°C° 0.1 mm 7 mps 700 mmHg 71%
16:00 +28°C° 0.1 mm 7 mps 700 mmHg 74%
17:00 +27°C° 0.1 mm 7 mps 700 mmHg 77%
18:00 +27°C° 0.1 mm 6 mps 700 mmHg 79%
19:00 +26°C° 0.1 mm 6 mps 701 mmHg 82%
20:00 +26°C° 0.1 mm 5 mps 701 mmHg 84%
21:00 +26°C° 0.1 mm 5 mps 701 mmHg 85%
22:00 +26°C° 0.1 mm 5 mps 701 mmHg 86%
23:00 +25°C° 0.1 mm 5 mps 701 mmHg 87%
Show more

We Need Your Consent

Meteoprog and our Service Providers may store and access personal data such as cookies, device identifiers or other similar technologies on your device and process such data to personalise content and ads, as well as provide social media features and to analyse the traffic.

  • Store and/or access information on your device

    Cookies, device identifiers or other information can be stored or accessed on your device for the purposes indicated above.

  • Personalised ads and content, ad and content measurement, audience insights, and products development

    Ads and content can be personalised based on a profile. More data can be added to better personalise ads and content. Ad and content performance can be measured. Insights about the audience who saw the ads and content can be derived. Such data can be used to develop or improve user’s experience, systems and software.

By clicking ‘I Agree’ you will allow the use of indicated cookies, device identifiers, web beacons or other similar technologies. Your settings can be changed in the browser on your device.

For certain purposes, legitimate interests may be relied on, rather than consent. You can read more about this in our Privacy and Cookie Policy.